Regional Weather Roundup
Issued by NWS Cleveland, OH

Home | Current Version | Previous Version | Text Only | Print | Product List | Glossary Off
Versions: 1 2 3 4 5 6 7 8 9 10 11 12 13 14 15 16 17 18 19 20 21 22 23 24 25 26 27 28 29 30 31 32 33 34 35 36 37 38 39 40 41 42 43 44 45 46 47 48 49 50

000
ASUS41 KCLE 160902
RWRCLE
OHIO REGIONAL WEATHER ROUNDUP
NATIONAL WEATHER SERVICE CLEVELAND, OH
500 AM EDT WED APR 16 2014

NOTE: "FAIR" INDICATES FEW OR NO CLOUDS BELOW 12,000 FEET WITH NO
SIGNIFICANT WEATHER AND/OR OBSTRUCTIONS TO VISIBILITY.

OHZ001>008-015>018-024>027-034-035-043-044-161000-
   NORTHWEST OHIO

CITY           SKY/WX    TMP DP  RH WIND       PRES   REMARKS
DEFIANCE       CLEAR     21  15  78 CALM      30.33R
FINDLAY        CLEAR     25  18  74 CALM      30.31R
TOLEDO EXPRESS CLEAR     20  14  77 CALM      30.32R
TOLEDO EXEC    CLEAR     25  14  63 SW3       30.34R
LIMA           CLEAR     25  18  74 S5        30.32R WCI  19
$$

OHZ009>014-019>023-028>033-038-089-161000-
   NORTHEAST OHIO

CITY           SKY/WX    TMP DP  RH WIND       PRES   REMARKS
CLE-HOPKINS    PTCLDY    29  13  51 NE5       30.34R WCI  24
CLE-LAKEFRONT  CLEAR     30  14  51 N7        30.31R WCI  23
CUY CO. ARPT   NOT AVBL
LORAIN-ELYRIA  CLEAR     28  18  66 E3        30.32R
ASHTABULA      CLEAR     22  17  81 CALM      30.31R
AKRON-CANTON   CLEAR     23  17  78 N3        30.29R
WOOSTER        PTCLDY    23  17  78 CALM      30.31R
MANSFIELD      CLEAR     20  15  81 CALM      30.29R
YOUNGSTOWN     PTCLDY    20  16  84 CALM      30.29R
$$

OHZ042-051>053-060>062-070>072-077>081-161000-
  SOUTHWEST OHIO

CITY           SKY/WX    TMP DP  RH WIND       PRES   REMARKS
CINC-COVINGTON CLEAR     28  18  66 E3        30.33R
CINC-LUNKEN    CLEAR     25  24  96 CALM      30.37R
HAMILTON       CLEAR     26  20  77 CALM      30.36R
DAYTON         CLEAR     25  16  68 CALM      30.34R
WRIGHT-PAT AFB CLEAR     24  17  72 CALM      30.34R
DAYTON GENERAL CLEAR     25  18  74 CALM      30.33R
WILMINGTON     CLEAR     25  18  74 CALM      30.32R
$$

OHZ036-037-039>041-045>050-054>059-063>069-073>076-082>088-161000-
  CENTRAL AND SOUTHEAST OHIO

CITY           SKY/WX    TMP DP  RH WIND       PRES   REMARKS
COLUMBUS       CLEAR     28  15  58 CALM      30.33R
OSU AIRPORT    CLEAR     25  17  72 W3        30.33R
BOLTON FIELD   NOT AVBL
RICKENBACK AFB NOT AVBL
NEWARK         CLEAR     24  16  71 CALM      30.32R
MARION         CLEAR     24  16  71 W3        30.32R
LANCASTER      CLEAR     22  18  85 CALM      30.33R
ZANESVILLE     CLEAR     25  18  74 CALM      30.32R
NEW PHILLY     CLEAR     23  19  85 CALM      30.33R
$$



USA.gov is the U.S. government's official web portal to all federal, state and local government web resources and services.